Flag for U.S.A. Weather past 2 weeks in Oberlin, Ohio, U.S.A.

Now
61 °F

Overcast.


Feels Like: 61 °F
Forecast: 55 / 62 °F
Wind: 7 mph from North

Location: Lorain County Regional Airport

Current Time: Sep 30, 2014 at 7:42:46 PM

Latest Report: Sep 30, 2014 at 7:00 PM


Visibility: 10 mi

Pressure: 29.97 "Hg

Humidity: 75%

Dew point: 53 °F

Location of OberlinLocation

Historic Weather in Oberlin — Graph

°F

Oberlin temperature yesterday

Maximum temperature yesterday: 79 °F (at 2:53 PM)
Minimum temperature yesterday: 53 °F (at 7:00 AM)
Average temperature yesterday: 65 °F

Past Weeks' High & Low Weather Summary

 TemperatureHumidityPressure
High83 °F (Sep 20, 3:53 PM)90% (Sep 16, 12:53 AM)30.44 "Hg (Sep 16, 12:53 AM)
Low44 °F (Sep 23, 5:53 AM)33% (Sep 24, 3:53 PM)29.67 "Hg (Sep 21, 7:53 AM)
Average61 °F72%30.14 "Hg
* Reported Sep 15 7:53 PM — Sep 30 7:00 PM, Oberlin, Weather by CustomWeather, © 2014

Note: Actual official high and low records may vary slightly from our data, if they occured in-between our weather recording intervals... More about our weather records

Advertising

Oberlin weather history for previous 24 hours

 ConditionsComfort  
Time TempWeatherWind HumidityBarometerVisibility
7:00 PM
Sep 30
61 °FOvercast.7 mph75%29.97 "Hg10 mi
5:53 PM62 °FOvercast.6 mph70%29.95 "Hg10 mi
4:53 PM62 °FOvercast.6 mph73%29.95 "Hg10 mi
4:04 PM62 °FLight rain. More clouds than sun.7 mph75%29.95 "Hg10 mi
3:53 PM62 °FCloudy.7 mph73%29.95 "Hg10 mi
2:53 PM63 °FOvercast.9 mph73%29.94 "Hg10 mi
1:53 PM62 °FMostly cloudy.9 mph75%29.95 "Hg10 mi
12:53 PM61 °FMore clouds than sun.7 mph83%29.95 "Hg6 mi
11:53 AM61 °FOvercast.9 mph83%29.93 "Hg5 mi
10:53 AM61 °FLight rain. Fog.9 mph87%29.93 "Hg2 mi
9:53 AM62 °FLow clouds.8 mph83%29.93 "Hg4 mi
8:53 AM64 °FLight rain. Mostly cloudy.9 mph84%29.91 "Hg6 mi
7:53 AM65 °FLight rain. Fog.3 mph87%29.88 "Hg2 mi
7:04 AM62 °FRain. Overcast.5 mph83%29.90 "Hg3 mi
7:00 AM62 °FRain. Overcast.5 mph80%29.90 "Hg2 mi
5:53 AM60 °FMostly cloudy.5 mph80%29.88 "Hg7 mi
4:53 AM58 °FPassing clouds.3 mph84%29.86 "Hg7 mi
3:53 AM58 °FClear.6 mph81%29.86 "Hg8 mi
2:53 AM58 °FClear.3 mph84%29.87 "Hg8 mi
1:53 AM60 °FClear.5 mph80%29.88 "Hg9 mi
12:53 AM59 °FClear.No wind84%29.88 "Hg10 mi
11:53 PM
Sep 29
60 °FClear.3 mph80%29.90 "Hg8 mi
10:53 PM62 °FClear.No wind78%29.91 "Hg10 mi
9:53 PM60 °FClear.3 mph83%29.92 "Hg10 mi
8:53 PM62 °FClear.No wind83%29.93 "Hg10 mi
7:53 PM66 °FSunny.No wind73%29.92 "Hg10 mi
Weather by CustomWeather, © 2014

See weather overviewHow to use our weather pages